Startpagina
METAR-TAF:

METAR-TAF

Vliegvelden :

Elsenborn

Bütgenbach, België

breedte: 50-28N, lengte: 006-11E, hoogte: 564 m

Actueel weer

Dit bericht is 40 minuten geleden gemaakt, om 16:55 UTC
Wind 2 kt uit variabele richting
Temperatuur 9°C
Vochtigheid 49%
Druk 1021 hPa
Zicht 10 km of meer

METAR: EBLB 171655Z AUTO VRB02KT 9999 NCD 09/M01 Q1021 BLU

Tijdstip: 18:35 (17:35 UTC)


TAF: ontbreekt

Waarnemingen en weersverwachtingen van meer dan 4000 vliegvelden (METAR en TAF).

De beschikbare stations zijn de gele en rode punten op de kaart.

Ga met uw muis naar het station om de naam te zien.

Klik dan om waarnemingen en weersverwachtingen te zien.

kaart wijzigen: klik op de groene knoppen met een zwart kruis om in te zoomen, op de groene knop met een streepje om uit te zoomen of op de groene pijlen voor aangrenzende kaarten.


METAR-TAF: